Date String (YYYY-MM-DD hh:mm:ss) UTC,Instrument flags,absolute air pressure of the measurement (hPa),sample flow rate (lpm),inlet stack bypass flow (lpm),air temperature of the measurement (°C),ambient temperature measured by the external sensor (°C),aerosol sample conditioner tube jacket temperature (°C),OPC LED temperature (°C),internal box temperature (°C),relative humidity of the measurement (%),span deviation,mass concentration of particles derived from Lorenz-Mie calculation of OPC scattering (μg/m³),mass concentration of particles derived from Lorenz-Mie calculation of OPC scattering (μg/m³),mass concentration of particles derived from Lorenz-Mie calculation of OPC scattering (μg/m³)
DateTimeUTC,F1_M11,P_M11,Q1_M11,Q2_M11,T1_M11,T2_M11,T3_M11,T4_M11,T5_M11,U1_M11,ZSPAN_M11,X2_M11,X0_M11,X1_M11
2024-03-02 21:00:00,SystemResetWarning,0813.2,4.99,000.00,025.9,025.2,000.0,034.1,027.6,05.1,0000.0,0000.55,0002.81,0000.30
2024-03-02 21:01:00,SystemResetWarning,0813.1,5.00,000.00,025.9,025.2,000.0,034.1,027.6,04.9,0000.0,0000.57,0002.88,0000.30
2024-03-02 21:02:00,SystemResetWarning,0813.0,5.01,000.00,025.9,025.2,000.0,034.1,027.6,05.0,0000.0,0000.56,0002.83,0000.30
2024-03-02 21:03:00,SystemResetWarning,0813.0,5.01,000.00,025.9,025.2,000.0,034.1,027.6,05.0,0000.0,0000.57,0002.74,0000.30
2024-03-02 21:04:00,SystemResetWarning,0813.0,5.01,000.00,025.9,025.2,000.0,034.1,027.7,05.0,0000.0,0000.59,0002.54,0000.29
2024-03-02 21:05:00,SystemResetWarning,0813.0,5.00,000.00,025.9,025.2,000.0,034.1,027.6,05.0,0000.0,0000.58,0002.52,0000.28
2024-03-02 21:06:00,SystemResetWarning,0813.0,5.00,000.00,025.9,025.2,000.0,034.1,027.6,04.8,0000.0,0000.58,0002.54,0000.28
2024-03-02 21:07:00,SystemResetWarning,0813.0,4.99,000.00,025.9,025.2,000.0,034.1,027.6,04.8,0000.0,0000.57,0002.52,0000.28
2024-03-02 21:08:00,SystemResetWarning,0813.0,5.00,000.00,025.9,025.2,000.0,034.1,027.6,05.0,0000.0,0000.53,0001.51,0000.28
2024-03-02 21:09:00,SystemResetWarning,0813.0,5.00,000.00,025.9,025.2,000.0,034.1,027.6,05.0,0000.0,0000.55,0001.10,0000.28
2024-03-02 21:10:00,SystemResetWarning,0813.0,4.99,000.00,025.9,025.2,000.0,034.2,027.7,04.8,0000.0,0000.56,0001.16,0000.29
2024-03-02 21:11:00,SystemResetWarning,0813.0,5.00,000.00,026.0,025.2,000.0,034.2,027.7,04.9,0000.0,0000.55,0001.15,0000.29
2024-03-02 21:12:00,SystemResetWarning,0813.0,5.00,000.00,026.0,025.2,000.0,034.2,027.7,04.9,0000.0,0000.54,0001.13,0000.29
2024-03-02 21:13:00,SystemResetWarning,0813.0,5.00,000.00,026.0,025.2,000.0,034.2,027.7,04.8,0000.0,0000.55,0001.18,0000.29
2024-03-02 21:14:00,SystemResetWarning,0813.0,5.00,000.00,026.0,025.2,000.0,034.2,027.7,04.9,0000.0,0000.52,0001.13,0000.28
2024-03-02 21:15:00,SystemResetWarning,0813.0,5.00,000.00,026.0,025.2,000.0,034.2,027.6,04.9,0000.0,0000.51,0001.11,0000.28
2024-03-02 21:16:00,SystemResetWarning,0813.0,5.00,000.00,026.0,025.2,000.0,034.2,027.6,05.0,0000.0,0000.53,0001.15,0000.28
2024-03-02 21:17:00,SystemResetWarning,0812.9,4.99,000.00,026.0,025.2,000.0,034.2,027.6,04.9,0000.0,0000.53,0001.13,0000.29
2024-03-02 21:18:00,SystemResetWarning,0812.9,5.00,000.00,026.0,025.2,000.0,034.2,027.7,04.8,0000.0,0000.57,0001.26,0000.28
2024-03-02 21:19:00,SystemResetWarning,0812.9,5.01,000.00,026.0,025.1,000.0,034.2,027.7,04.8,0000.0,0000.57,0001.27,0000.28
2024-03-02 21:20:00,SystemResetWarning,0812.9,5.00,000.00,026.0,025.1,000.0,034.2,027.7,05.0,0000.0,0000.51,0001.06,0000.27
2024-03-02 21:21:00,SystemResetWarning,0812.8,5.00,000.00,026.0,025.1,000.0,034.2,027.7,04.9,0000.0,0000.48,0000.97,0000.26
2024-03-02 21:22:00,SystemResetWarning,0812.8,5.00,000.00,026.0,025.1,000.0,034.2,027.6,05.0,0000.0,0000.45,0000.86,0000.25
2024-03-02 21:23:00,SystemResetWarning,0812.8,5.00,000.00,026.0,025.1,000.0,034.2,027.7,05.0,0000.0,0000.42,0001.88,0000.24
2024-03-02 21:24:00,SystemResetWarning,0812.8,5.00,000.00,026.0,025.1,000.0,034.2,027.7,05.0,0000.0,0000.40,0002.31,0000.25
2024-03-02 21:25:00,SystemResetWarning,0812.8,4.99,000.00,026.0,025.1,000.0,034.2,027.7,04.9,0000.0,0000.42,0002.35,0000.25
2024-03-02 21:26:00,SystemResetWarning,0812.8,5.00,000.00,026.0,025.1,000.0,034.3,027.7,05.0,0000.0,0000.45,0002.39,0000.25
2024-03-02 21:27:00,SystemResetWarning,0812.7,5.01,000.00,026.0,025.1,000.0,034.3,027.7,04.8,0000.0,0000.44,0002.36,0000.25
2024-03-02 21:28:00,SystemResetWarning,0812.6,5.01,000.00,026.0,025.1,000.0,034.3,027.7,04.8,0000.0,0000.47,0002.45,0000.24
2024-03-02 21:29:00,SystemResetWarning,0812.6,5.01,000.00,026.0,025.1,000.0,034.3,027.7,04.8,0000.0,0000.43,0002.34,0000.24
2024-03-02 21:30:00,SystemResetWarning,0812.7,4.99,000.00,026.0,025.1,000.0,034.3,027.7,04.8,0000.0,0000.43,0002.33,0000.24
2024-03-02 21:31:00,SystemResetWarning,0812.9,5.00,000.00,026.0,025.2,000.0,034.3,027.8,04.8,0000.0,0000.45,0002.38,0000.24
2024-03-02 21:32:00,SystemResetWarning,0812.9,5.00,000.00,026.0,025.2,000.0,034.3,027.7,04.8,0000.0,0000.47,0002.43,0000.25
2024-03-02 21:33:00,SystemResetWarning,0812.8,5.00,000.00,026.0,025.2,000.0,034.3,027.7,04.8,0000.0,0000.49,0002.49,0000.26
2024-03-02 21:34:00,SystemResetWarning,0812.7,5.00,000.00,026.0,025.2,000.0,034.3,027.7,04.9,0000.0,0000.51,0001.81,0000.26
2024-03-02 21:35:00,SystemResetWarning,0812.7,5.00,000.00,026.0,025.2,000.0,034.3,027.8,04.8,0000.0,0000.52,0001.14,0000.25
2024-03-02 21:36:00,SystemResetWarning,0812.6,5.00,000.00,026.0,025.2,000.0,034.3,027.8,04.8,0000.0,0000.51,0001.12,0000.24
2024-03-02 21:37:00,SystemResetWarning,0812.7,5.00,000.00,026.0,025.2,000.0,034.3,027.8,04.7,0000.0,0000.46,0001.03,0000.24
2024-03-02 21:38:00,SystemResetWarning,0812.7,5.01,000.00,026.0,025.2,000.0,034.4,027.8,04.8,0000.0,0000.47,0001.06,0000.24
2024-03-02 21:39:00,SystemResetWarning,0812.7,5.01,000.00,026.0,025.2,000.0,034.4,027.8,04.9,0000.0,0000.46,0001.01,0000.25
2024-03-02 21:40:00,SystemResetWarning,0812.6,4.99,000.00,026.0,025.2,000.0,034.4,027.8,04.9,0000.0,0000.46,0001.00,0000.25
2024-03-02 21:41:00,SystemResetWarning,0812.6,5.00,000.00,026.0,025.2,000.0,034.4,027.8,04.8,0000.0,0000.45,0000.98,0000.25
2024-03-02 21:42:00,SystemResetWarning,0812.5,5.00,000.00,026.0,025.2,000.0,034.4,027.8,04.9,0000.0,0000.43,0000.96,0000.25
2024-03-02 21:43:00,SystemResetWarning,0812.6,5.00,000.00,026.0,025.2,000.0,034.4,027.8,04.9,0000.0,0000.41,0000.91,0000.25
2024-03-02 21:44:00,SystemResetWarning,0812.7,5.00,000.00,026.0,025.3,000.0,034.4,027.9,04.9,0000.0,0000.40,0000.92,0000.24
2024-03-02 21:45:00,SystemResetWarning,0812.8,5.01,000.00,026.0,025.3,000.0,034.4,027.8,04.9,0000.0,0000.40,0001.94,0000.23
2024-03-02 21:46:00,SystemResetWarning,0812.7,5.01,000.00,026.0,025.3,000.0,034.4,027.8,05.0,0000.0,0000.41,0002.07,0000.23
2024-03-02 21:47:00,SystemResetWarning,0812.8,5.00,000.00,026.1,025.3,000.0,034.4,027.8,04.9,0000.0,0000.40,0002.05,0000.23
2024-03-02 21:48:00,SystemResetWarning,0812.7,4.99,000.00,026.1,025.3,000.0,034.4,027.8,05.0,0000.0,0000.41,0002.08,0000.22
2024-03-02 21:49:00,SystemResetWarning,0812.6,4.99,000.00,026.1,025.3,000.0,034.4,027.9,05.0,0000.0,0000.40,0002.06,0000.22
2024-03-02 21:50:00,SystemResetWarning,0812.7,5.00,000.00,026.1,025.3,000.0,034.4,027.9,05.6,0000.0,0000.38,0002.39,0000.22
2024-03-02 21:51:00,SystemResetWarning,0812.7,4.99,000.00,026.1,025.3,000.0,034.4,027.9,05.9,0000.0,0000.40,0003.20,0000.21
2024-03-02 21:52:00,SystemResetWarning,0812.9,5.00,000.00,026.1,025.3,000.0,034.4,027.9,05.9,0000.0,0000.43,0005.48,0000.21
2024-03-02 21:53:00,SystemResetWarning,0812.9,5.00,000.00,026.1,025.3,000.0,034.4,027.9,06.0,0000.0,0000.46,0005.63,0000.21
2024-03-02 21:54:00,SystemResetWarning,0812.8,5.00,000.00,026.1,025.3,000.0,034.4,027.9,05.9,0000.0,0000.48,0005.67,0000.20
2024-03-02 21:55:00,SystemResetWarning,0812.7,5.00,000.00,026.1,025.3,000.0,034.5,027.9,05.9,0000.0,0000.50,0005.72,0000.21
2024-03-02 21:56:00,SystemResetWarning,0812.8,5.00,000.00,026.1,025.3,000.0,034.5,027.9,05.4,0000.0,0000.49,0006.25,0000.22
2024-03-02 21:57:00,SystemResetWarning,0812.9,5.01,000.00,026.1,025.3,000.0,034.5,027.9,06.1,0000.0,0000.50,0005.31,0000.22
2024-03-02 21:58:00,SystemResetWarning,0813.0,5.00,000.00,026.1,025.4,000.0,034.5,027.9,06.3,0000.0,0000.51,0005.32,0000.22
2024-03-02 21:59:00,SystemResetWarning,0813.0,5.00,000.00,026.1,025.4,000.0,034.5,027.9,06.2,0000.0,0000.53,0005.41,0000.23
